Time,TemperatureF,DewpointF,PressureIn,WindDirection,WindDirectionDegrees,WindSpeedMPH,WindSpeedGustMPH,Humidity,HourlyPrecipIn,Conditions,Clouds,dailyrainin,SoftwareType,DateUTC
2013-03-05 00:00:00,25.0,21.7,29.92,West,278,0.0,2.0,87,0.00,,,0.00,Wunderground v.1.15,2013-03-05 05:00:00,
2013-03-05 00:10:00,25.0,21.4,29.92,West,278,0.0,2.0,86,0.00,,,0.00,Wunderground v.1.15,2013-03-05 05:10:00,
2013-03-05 00:20:00,25.0,21.4,29.92,West,278,0.0,2.0,86,0.00,,,0.00,Wunderground v.1.15,2013-03-05 05:20:00,
2013-03-05 00:30:00,25.0,21.4,29.92,West,278,0.0,2.0,86,0.00,,,0.00,Wunderground v.1.15,2013-03-05 05:30:00,
2013-03-05 00:40:00,25.0,21.7,29.92,West,278,0.0,2.0,87,0.00,,,0.00,Wunderground v.1.15,2013-03-05 05:40:00,
2013-03-05 00:50:00,25.0,21.4,29.93,West,278,0.0,2.0,86,0.00,,,0.00,Wunderground v.1.15,2013-03-05 05:50:00,
2013-03-05 01:00:00,25.0,21.4,29.93,West,278,0.0,2.0,86,0.00,,,0.00,Wunderground v.1.15,2013-03-05 06:00:00,
2013-03-05 01:10:00,25.0,21.4,29.93,West,278,0.0,2.0,86,0.00,,,0.00,Wunderground v.1.15,2013-03-05 06:10:00,
2013-03-05 01:20:00,25.1,21.5,29.94,West,278,0.0,2.0,86,0.00,,,0.00,Wunderground v.1.15,2013-03-05 06:20:00,
2013-03-05 01:30:00,25.1,21.5,29.94,West,278,0.0,2.0,86,0.00,,,0.00,Wunderground v.1.15,2013-03-05 06:30:00,
2013-03-05 01:40:00,25.1,21.2,29.94,West,278,0.0,2.0,85,0.00,,,0.00,Wunderground v.1.15,2013-03-05 06:40:00,
2013-03-05 01:50:00,25.1,20.9,29.94,West,278,0.0,2.0,84,0.00,,,0.00,Wunderground v.1.15,2013-03-05 06:50:00,
2013-03-05 02:00:00,25.1,20.7,29.95,West,278,0.0,2.0,83,0.00,,,0.00,Wunderground v.1.15,2013-03-05 07:00:00,
2013-03-05 02:10:00,25.1,20.7,29.95,West,278,0.0,2.0,83,0.00,,,0.00,Wunderground v.1.15,2013-03-05 07:10:00,
2013-03-05 02:20:00,25.1,20.1,29.95,West,278,0.0,2.0,81,0.00,,,0.00,Wunderground v.1.15,2013-03-05 07:20:00,
2013-03-05 02:30:00,25.3,20.3,29.95,West,278,0.0,2.0,81,0.00,,,0.00,Wunderground v.1.15,2013-03-05 07:30:00,
2013-03-05 02:40:00,25.3,20.3,29.95,West,278,0.0,2.0,81,0.00,,,0.00,Wunderground v.1.15,2013-03-05 07:40:00,
2013-03-05 02:50:00,25.1,19.8,29.95,West,278,0.0,2.0,80,0.00,,,0.00,Wunderground v.1.15,2013-03-05 07:50:00,
2013-03-05 03:00:00,25.3,20.0,29.96,West,278,0.0,2.0,80,0.00,,,0.00,Wunderground v.1.15,2013-03-05 08:00:00,
2013-03-05 03:10:00,25.3,20.3,29.96,West,278,0.0,2.0,81,0.00,,,0.00,Wunderground v.1.15,2013-03-05 08:10:00,
2013-03-05 03:20:00,25.1,20.4,29.97,West,278,0.0,2.0,82,0.00,,,0.00,Wunderground v.1.15,2013-03-05 08:20:00,
2013-03-05 03:30:00,25.1,20.4,29.97,West,278,0.0,2.0,82,0.00,,,0.00,Wunderground v.1.15,2013-03-05 08:30:00,
2013-03-05 03:40:00,25.1,20.4,29.97,West,278,0.0,2.0,82,0.00,,,0.00,Wunderground v.1.15,2013-03-05 08:40:00,
2013-03-05 03:50:00,25.1,20.7,29.97,West,278,0.0,2.0,83,0.00,,,0.00,Wunderground v.1.15,2013-03-05 08:50:00,
2013-03-05 04:00:00,25.1,20.7,29.97,West,278,0.0,2.0,83,0.00,,,0.00,Wunderground v.1.15,2013-03-05 09:00:00,
2013-03-05 04:10:00,25.0,20.6,29.97,West,278,0.0,2.0,83,0.00,,,0.00,Wunderground v.1.15,2013-03-05 09:10:00,
2013-03-05 04:20:00,25.1,21.2,29.98,West,278,0.0,2.0,85,0.00,,,0.00,Wunderground v.1.15,2013-03-05 09:20:00,
2013-03-05 04:30:00,25.1,21.2,29.99,West,278,0.0,2.0,85,0.00,,,0.00,Wunderground v.1.15,2013-03-05 09:30:00,
2013-03-05 04:40:00,25.1,21.2,29.99,West,278,0.0,2.0,85,0.00,,,0.00,Wunderground v.1.15,2013-03-05 09:40:00,
2013-03-05 04:50:00,25.1,21.2,30.00,West,278,0.0,2.0,85,0.00,,,0.00,Wunderground v.1.15,2013-03-05 09:50:00,
2013-03-05 05:00:00,25.1,21.5,30.00,West,278,0.0,2.0,86,0.00,,,0.00,Wunderground v.1.15,2013-03-05 10:00:00,
2013-03-05 05:10:00,25.1,21.8,30.00,West,278,0.0,2.0,87,0.00,,,0.00,Wunderground v.1.15,2013-03-05 10:10:00,
2013-03-05 05:20:00,25.3,21.7,30.01,West,278,0.0,2.0,86,0.00,,,0.00,Wunderground v.1.15,2013-03-05 10:20:00,
2013-03-05 05:30:00,25.3,21.1,30.01,West,278,1.0,1.0,84,0.00,,,0.00,Wunderground v.1.15,2013-03-05 10:30:00,
2013-03-05 05:40:00,25.3,21.4,30.01,West,278,0.0,2.0,85,0.00,,,0.00,Wunderground v.1.15,2013-03-05 10:40:00,
2013-03-05 05:50:00,25.1,21.5,30.02,West,278,0.0,2.0,86,0.00,,,0.00,Wunderground v.1.15,2013-03-05 10:50:00,
2013-03-05 06:00:00,25.1,21.5,30.03,West,278,1.0,1.0,86,0.00,,,0.00,Wunderground v.1.15,2013-03-05 11:00:00,
2013-03-05 06:10:00,25.0,21.4,30.03,West,278,0.0,2.0,86,0.00,,,0.00,Wunderground v.1.15,2013-03-05 11:10:00,
2013-03-05 06:20:00,25.1,21.8,30.03,West,278,0.0,2.0,87,0.00,,,0.00,Wunderground v.1.15,2013-03-05 11:20:00,
2013-03-05 06:30:00,25.0,21.7,30.03,West,278,0.0,0.0,87,0.00,,,0.00,Wunderground v.1.15,2013-03-05 11:30:00,
2013-03-05 06:40:00,25.0,21.7,30.03,West,278,0.0,0.0,87,0.00,,,0.00,Wunderground v.1.15,2013-03-05 11:40:00,
2013-03-05 06:50:00,25.1,21.8,30.04,West,278,0.0,0.0,87,0.00,,,0.00,Wunderground v.1.15,2013-03-05 11:50:00,
2013-03-05 07:00:00,25.1,21.8,30.05,West,278,1.0,1.0,87,0.00,,,0.00,Wunderground v.1.15,2013-03-05 12:00:00,
2013-03-05 07:10:00,25.3,22.0,30.05,West,278,0.0,3.0,87,0.00,,,0.00,Wunderground v.1.15,2013-03-05 12:10:00,
2013-03-05 07:20:00,25.3,22.0,30.05,West,278,0.0,3.0,87,0.00,,,0.00,Wunderground v.1.15,2013-03-05 12:20:00,
2013-03-05 07:30:00,25.6,22.3,30.06,West,278,0.0,3.0,87,0.00,,,0.00,Wunderground v.1.15,2013-03-05 12:30:00,
2013-03-05 07:40:00,25.8,21.9,30.06,West,278,0.0,3.0,85,0.00,,,0.00,Wunderground v.1.15,2013-03-05 12:40:00,
2013-03-05 07:50:00,25.8,21.6,30.06,West,278,0.0,3.0,84,0.00,,,0.00,Wunderground v.1.15,2013-03-05 12:50:00,
2013-03-05 08:00:00,25.8,21.3,30.06,West,278,2.0,3.0,83,0.00,,,0.00,Wunderground v.1.15,2013-03-05 13:00:00,
2013-03-05 08:10:00,26.0,21.5,30.06,West,271,3.0,4.0,83,0.00,,,0.00,Wunderground v.1.15,2013-03-05 13:10:00,
2013-03-05 08:20:00,26.0,21.3,30.06,West,276,3.0,3.0,82,0.00,,,0.00,Wunderground v.1.15,2013-03-05 13:20:00,
2013-03-05 08:30:00,26.1,21.4,30.07,WNW,299,3.0,3.0,82,0.00,,,0.00,Wunderground v.1.15,2013-03-05 13:30:00,
2013-03-05 08:40:00,26.4,21.7,30.07,NW,312,2.0,2.0,82,0.00,,,0.00,Wunderground v.1.15,2013-03-05 13:40:00,
2013-03-05 08:50:00,26.7,21.7,30.07,WNW,299,1.0,1.0,81,0.00,,,0.00,Wunderground v.1.15,2013-03-05 13:50:00,
2013-03-05 09:00:00,26.7,21.7,30.07,West,271,1.0,1.0,81,0.00,,,0.00,Wunderground v.1.15,2013-03-05 14:00:00,
2013-03-05 09:10:00,27.3,21.9,30.07,WSW,258,1.0,3.0,80,0.00,,,0.00,Wunderground v.1.15,2013-03-05 14:10:00,
2013-03-05 09:20:00,27.2,21.5,30.08,WNW,293,3.0,3.0,79,0.00,,,0.00,Wunderground v.1.15,2013-03-05 14:20:00,
2013-03-05 09:30:00,27.3,21.3,30.08,WSW,255,2.0,3.0,78,0.00,,,0.00,Wunderground v.1.15,2013-03-05 14:30:00,
2013-03-05 09:40:00,27.3,21.3,30.08,West,274,3.0,3.0,78,0.00,,,0.00,Wunderground v.1.15,2013-03-05 14:40:00,
2013-03-05 09:50:00,27.5,21.2,30.08,West,261,2.0,5.0,77,0.00,,,0.00,Wunderground v.1.15,2013-03-05 14:50:00,
2013-03-05 10:00:00,27.5,21.5,30.08,WNW,284,4.0,4.0,78,0.00,,,0.00,Wunderground v.1.15,2013-03-05 15:00:00,
2013-03-05 10:10:00,27.8,21.2,30.08,WNW,296,3.0,3.0,76,0.00,,,0.00,Wunderground v.1.15,2013-03-05 15:10:00,
2013-03-05 10:20:00,27.9,21.3,30.08,West,266,3.0,3.0,76,0.00,,,0.00,Wunderground v.1.15,2013-03-05 15:20:00,
2013-03-05 10:30:00,28.1,21.2,30.08,West,272,4.0,4.0,75,0.00,,,0.00,Wunderground v.1.15,2013-03-05 15:30:00,
2013-03-05 10:40:00,27.9,21.3,30.08,NW,310,4.0,6.0,76,0.00,,,0.00,Wunderground v.1.15,2013-03-05 15:40:00,
2013-03-05 10:50:00,28.1,21.5,30.08,WNW,291,3.0,3.0,76,0.00,,,0.00,Wunderground v.1.15,2013-03-05 15:50:00,
2013-03-05 11:00:00,28.4,21.8,30.08,West,275,3.0,6.0,76,0.00,,,0.00,Wunderground v.1.15,2013-03-05 16:00:00,
2013-03-05 11:10:00,28.5,21.6,30.08,West,272,4.0,4.0,75,0.00,,,0.00,Wunderground v.1.15,2013-03-05 16:10:00,
2013-03-05 11:20:00,29.0,22.1,30.08,WSW,258,2.0,3.0,75,0.00,,,0.00,Wunderground v.1.15,2013-03-05 16:20:00,
2013-03-05 11:30:00,29.3,22.0,30.07,WNW,295,4.0,4.0,74,0.00,,,0.00,Wunderground v.1.15,2013-03-05 16:30:00,
2013-03-05 11:40:00,29.5,21.9,30.07,NW,318,5.0,5.0,73,0.00,,,0.00,Wunderground v.1.15,2013-03-05 16:40:00,
2013-03-05 11:50:00,29.8,22.2,30.07,WSW,256,5.0,11.0,73,0.00,,,0.00,Wunderground v.1.15,2013-03-05 16:50:00,
2013-03-05 12:00:00,30.3,22.4,30.07,West,266,4.0,11.0,72,0.00,,,0.01,Wunderground v.1.15,2013-03-05 17:00:00,
2013-03-05 12:10:00,30.6,23.0,30.07,WNW,291,5.0,5.0,73,0.00,,,0.01,Wunderground v.1.15,2013-03-05 17:10:00,
2013-03-05 12:20:00,30.4,22.8,30.06,WNW,295,6.0,6.0,73,0.00,,,0.01,Wunderground v.1.15,2013-03-05 17:20:00,
2013-03-05 12:30:00,30.7,22.7,30.07,WNW,289,6.0,6.0,72,0.00,,,0.01,Wunderground v.1.15,2013-03-05 17:30:00,
2013-03-05 12:40:00,31.2,22.9,30.07,WNW,287,7.0,7.0,71,0.00,,,0.01,Wunderground v.1.15,2013-03-05 17:40:00,
2013-03-05 12:50:00,31.5,22.8,30.06,WNW,291,5.0,5.0,70,0.00,,,0.01,Wunderground v.1.15,2013-03-05 17:50:00,
2013-03-05 13:00:00,31.8,23.1,30.06,NW,310,5.0,5.0,70,0.00,,,0.01,Wunderground v.1.15,2013-03-05 18:00:00,
2013-03-05 13:10:00,32.5,24.1,30.06,WNW,295,3.0,3.0,71,0.00,,,0.01,Wunderground v.1.15,2013-03-05 18:10:00,
2013-03-05 13:20:00,32.8,23.7,30.06,West,264,5.0,6.0,69,0.00,,,0.01,Wunderground v.1.15,2013-03-05 18:20:00,
2013-03-05 13:30:00,33.2,23.8,30.06,WSW,245,5.0,5.0,68,0.00,,,0.02,Wunderground v.1.15,2013-03-05 18:30:00,
2013-03-05 13:40:00,33.8,23.6,30.06,NNW,336,3.0,8.0,66,0.00,,,0.02,Wunderground v.1.15,2013-03-05 18:40:00,
2013-03-05 13:50:00,33.7,24.3,30.06,WNW,293,4.0,4.0,68,0.00,,,0.02,Wunderground v.1.15,2013-03-05 18:50:00,
2013-03-05 14:00:00,33.4,24.0,30.06,West,272,3.0,8.0,68,0.00,,,0.02,Wunderground v.1.15,2013-03-05 19:00:00,
2013-03-05 14:10:00,34.0,24.5,30.06,West,279,6.0,7.0,68,0.00,,,0.02,Wunderground v.1.15,2013-03-05 19:10:00,
2013-03-05 14:20:00,33.8,25.0,30.06,WSW,243,4.0,7.0,70,0.00,,,0.02,Wunderground v.1.15,2013-03-05 19:20:00,
2013-03-05 14:30:00,34.0,24.9,30.06,West,259,4.0,4.0,69,0.00,,,0.02,Wunderground v.1.15,2013-03-05 19:30:00,
2013-03-05 14:40:00,35.0,25.9,30.06,West,279,4.0,7.0,69,0.00,,,0.02,Wunderground v.1.15,2013-03-05 19:40:00,
2013-03-05 14:50:00,35.2,25.7,30.07,WSW,251,7.0,7.0,68,0.00,,,0.02,Wunderground v.1.15,2013-03-05 19:50:00,
2013-03-05 15:00:00,35.3,25.4,30.07,WNW,282,7.0,10.0,67,0.00,,,0.02,Wunderground v.1.15,2013-03-05 20:00:00,
2013-03-05 15:10:00,35.3,25.1,30.07,West,275,7.0,7.0,66,0.00,,,0.02,Wunderground v.1.15,2013-03-05 20:10:00,
2013-03-05 15:20:00,35.5,25.6,30.07,West,270,7.0,9.0,67,0.00,,,0.02,Wunderground v.1.15,2013-03-05 20:20:00,
2013-03-05 15:30:00,35.6,25.0,30.07,WNW,291,7.0,7.0,65,0.00,,,0.02,Wunderground v.1.15,2013-03-05 20:30:00,
2013-03-05 15:40:00,35.6,25.4,30.07,NW,306,6.0,9.0,66,0.00,,,0.02,Wunderground v.1.15,2013-03-05 20:40:00,
2013-03-05 15:50:00,35.9,25.6,30.08,WNW,300,5.0,5.0,66,0.00,,,0.02,Wunderground v.1.15,2013-03-05 20:50:00,
2013-03-05 16:00:00,35.8,25.5,30.08,NW,312,6.0,6.0,66,0.00,,,0.02,Wunderground v.1.15,2013-03-05 21:00:00,
2013-03-05 16:10:00,35.2,25.7,30.08,West,264,8.0,8.0,68,0.00,,,0.02,Wunderground v.1.15,2013-03-05 21:10:00,
2013-03-05 16:20:00,35.3,25.8,30.08,NW,307,7.0,7.0,68,0.00,,,0.02,Wunderground v.1.15,2013-03-05 21:20:00,
2013-03-05 16:30:00,34.9,25.4,30.08,West,265,7.0,7.0,68,0.00,,,0.02,Wunderground v.1.15,2013-03-05 21:30:00,
2013-03-05 16:40:00,34.7,25.9,30.08,WNW,289,6.0,9.0,70,0.00,,,0.02,Wunderground v.1.15,2013-03-05 21:40:00,
2013-03-05 16:50:00,34.9,25.8,30.09,WNW,283,6.0,6.0,69,0.00,,,0.02,Wunderground v.1.15,2013-03-05 21:50:00,
2013-03-05 17:00:00,35.0,25.9,30.09,WNW,293,5.0,5.0,69,0.00,,,0.02,Wunderground v.1.15,2013-03-05 22:00:00,
2013-03-05 17:10:00,34.9,26.1,30.09,West,280,5.0,5.0,70,0.00,,,0.02,Wunderground v.1.15,2013-03-05 22:10:00,
2013-03-05 17:20:00,34.4,25.6,30.08,WNW,288,4.0,6.0,70,0.00,,,0.02,Wunderground v.1.15,2013-03-05 22:20:00,
2013-03-05 17:30:00,34.1,25.3,30.08,WNW,301,5.0,5.0,70,0.00,,,0.02,Wunderground v.1.15,2013-03-05 22:30:00,
2013-03-05 17:40:00,33.7,25.3,30.08,NW,318,5.0,5.0,71,0.00,,,0.02,Wunderground v.1.15,2013-03-05 22:40:00,
2013-03-05 17:50:00,33.2,25.5,30.08,NW,306,6.0,8.0,73,0.00,,,0.02,Wunderground v.1.15,2013-03-05 22:50:00,
2013-03-05 18:00:00,32.8,25.4,30.08,WNW,285,6.0,6.0,74,0.00,,,0.02,Wunderground v.1.15,2013-03-05 23:00:00,
2013-03-05 18:10:00,32.4,25.4,30.08,WNW,282,2.0,2.0,75,0.00,,,0.02,Wunderground v.1.15,2013-03-05 23:10:00,
2013-03-05 18:20:00,31.9,25.2,30.09,WNW,295,2.0,3.0,76,0.00,,,0.02,Wunderground v.1.15,2013-03-05 23:20:00,
2013-03-05 18:30:00,31.5,25.1,30.09,WNW,286,4.0,4.0,77,0.00,,,0.02,Wunderground v.1.15,2013-03-05 23:30:00,
2013-03-05 18:40:00,31.0,24.9,30.09,WNW,286,1.0,1.0,78,0.00,,,0.02,Wunderground v.1.15,2013-03-05 23:40:00,
2013-03-05 18:50:00,30.7,25.0,30.09,WNW,299,2.0,2.0,79,0.00,,,0.02,Wunderground v.1.15,2013-03-05 23:50:00,
2013-03-05 19:00:00,30.6,24.9,30.10,West,272,3.0,3.0,79,0.00,,,0.02,Wunderground v.1.15,2013-03-06 00:00:00,
2013-03-05 19:10:00,30.0,24.6,30.10,West,280,1.0,1.0,80,0.00,,,0.02,Wunderground v.1.15,2013-03-06 00:10:00,
2013-03-05 19:20:00,29.8,24.4,30.11,NW,306,2.0,2.0,80,0.00,,,0.02,Wunderground v.1.15,2013-03-06 00:20:00,
2013-03-05 19:30:00,29.7,24.6,30.10,WNW,282,2.0,2.0,81,0.00,,,0.02,Wunderground v.1.15,2013-03-06 00:30:00,
2013-03-05 19:40:00,29.3,24.2,30.10,WNW,301,1.0,1.0,81,0.00,,,0.02,Wunderground v.1.15,2013-03-06 00:40:00,
2013-03-05 19:50:00,29.0,24.2,30.10,WNW,303,1.0,3.0,82,0.00,,,0.02,Wunderground v.1.15,2013-03-06 00:50:00,
2013-03-05 20:00:00,28.5,24.0,30.10,WNW,303,0.0,3.0,83,0.00,,,0.02,Wunderground v.1.15,2013-03-06 01:00:00,
2013-03-05 20:10:00,28.2,24.0,30.10,NW,314,2.0,2.0,84,0.00,,,0.02,Wunderground v.1.15,2013-03-06 01:10:00,
2013-03-05 20:20:00,28.1,23.9,30.10,WNW,295,1.0,1.0,84,0.00,,,0.02,Wunderground v.1.15,2013-03-06 01:20:00,
2013-03-05 20:30:00,27.8,23.9,30.10,WNW,295,0.0,3.0,85,0.00,,,0.02,Wunderground v.1.15,2013-03-06 01:30:00,
2013-03-05 20:40:00,27.6,23.7,30.10,WNW,295,2.0,3.0,85,0.00,,,0.02,Wunderground v.1.15,2013-03-06 01:40:00,
2013-03-05 20:50:00,27.0,23.4,30.09,WNW,295,1.0,1.0,86,0.00,,,0.02,Wunderground v.1.15,2013-03-06 01:50:00,
2013-03-05 21:00:00,26.9,23.3,30.10,WNW,296,2.0,2.0,86,0.00,,,0.02,Wunderground v.1.15,2013-03-06 02:00:00,
2013-03-05 21:10:00,26.9,23.5,30.10,WNW,296,1.0,1.0,87,0.00,,,0.02,Wunderground v.1.15,2013-03-06 02:10:00,
2013-03-05 21:20:00,26.6,23.3,30.10,WNW,296,1.0,1.0,87,0.00,,,0.02,Wunderground v.1.15,2013-03-06 02:20:00,
2013-03-05 21:30:00,26.4,23.1,30.10,WNW,296,0.0,3.0,87,0.00,,,0.02,Wunderground v.1.15,2013-03-06 02:30:00,
2013-03-05 21:40:00,26.3,23.2,30.10,WNW,296,0.0,3.0,88,0.00,,,0.02,Wunderground v.1.15,2013-03-06 02:40:00,
2013-03-05 21:50:00,26.0,22.9,30.10,WNW,296,0.0,3.0,88,0.00,,,0.02,Wunderground v.1.15,2013-03-06 02:50:00,
2013-03-05 22:00:00,26.0,23.2,30.11,WNW,296,0.0,3.0,89,0.00,,,0.02,Wunderground v.1.15,2013-03-06 03:00:00,
2013-03-05 22:10:00,26.0,23.2,30.11,WNW,296,0.0,3.0,89,0.00,,,0.02,Wunderground v.1.15,2013-03-06 03:10:00,
2013-03-05 22:20:00,26.0,23.2,30.11,WNW,296,0.0,3.0,89,0.00,,,0.02,Wunderground v.1.15,2013-03-06 03:20:00,
2013-03-05 22:30:00,25.6,22.8,30.11,WNW,296,1.0,1.0,89,0.00,,,0.02,Wunderground v.1.15,2013-03-06 03:30:00,
2013-03-05 22:40:00,25.4,22.6,30.11,WNW,299,0.0,3.0,89,0.00,,,0.02,Wunderground v.1.15,2013-03-06 03:40:00,
2013-03-05 22:50:00,25.4,22.6,30.11,WNW,299,1.0,1.0,89,0.00,,,0.02,Wunderground v.1.15,2013-03-06 03:50:00,
2013-03-05 23:00:00,24.5,21.7,30.11,WNW,299,0.0,3.0,89,0.00,,,0.02,Wunderground v.1.15,2013-03-06 04:00:00,
2013-03-05 23:10:00,25.3,23.0,30.11,WNW,299,0.0,3.0,91,0.00,,,0.02,Wunderground v.1.15,2013-03-06 04:10:00,
2013-03-05 23:20:00,25.4,22.9,30.11,WNW,299,0.0,3.0,90,0.00,,,0.02,Wunderground v.1.15,2013-03-06 04:20:00,
2013-03-05 23:30:00,25.6,23.1,30.10,WNW,299,0.0,3.0,90,0.00,,,0.02,Wunderground v.1.15,2013-03-06 04:30:00,
2013-03-05 23:40:00,25.8,23.3,30.10,WNW,299,0.0,3.0,90,0.00,,,0.02,Wunderground v.1.15,2013-03-06 04:40:00,
2013-03-05 23:50:00,25.8,23.3,30.09,WNW,299,0.0,3.0,90,0.00,,,0.02,Wunderground v.1.15,2013-03-06 04:50:00,